Regional Weather Roundup
Issued by NWS

Home | Current Version | Previous Version | Graphics & Text | Print | Product List | Glossary On
Versions: 1 2 3 4 5 6 7 8 9 10 11 12 13 14 15 16 17 18 19 20 21 22 23 24 25 26 27 28 29 30 31 32 33 34 35 36 37 38 39 40 41 42 43 44 45 46 47 48 49 50
000
ASUS43 KLOT 052210
RWRIL

ILLINOIS REGIONAL WEATHER ROUNDUP
NATIONAL WEATHER SERVICE CHICAGO/ROMEOVILLE IL
400 PM CST THU MAR 05 2015

NOTE: "FAIR" INDICATES FEW OR NO CLOUDS BELOW 12,000 FEET WITH NO
SIGNIFICANT WEATHER AND/OR OBSTRUCTIONS TO VISIBILITY.

* THESE STATIONS ARE NOT UNDER NWS QUALITY CONTROL. THEY ALSO MAY NOT
  REPORT WEATHER SUCH AS PRECIPITATION OR FOG.

ILZ001-002-007-009-015-016-024-052300-
NORTHWEST ILLINOIS

CITY           SKY/WX    TMP DP  RH WIND       PRES   REMARKS
MOLINE         SUNNY     13  -1  54 W9        30.55R WCI   1
STERLING*      SUNNY     14   1  57 W12       30.53S WCI   0
SAVANNA*       SUNNY     14  -3  47 W7        30.53R WCI   4
$$

ILZ003-004-008-010-011-017-018-052300-
NORTH CENTRAL ILLINOIS

CITY           SKY/WX    TMP DP  RH WIND       PRES   REMARKS
ROCKFORD       SUNNY     12  -4  48 W9        30.51S WCI   0
FREEPORT*      SUNNY     11  -3  52 W5        30.51S WCI   3
ROCHELLE*      SUNNY     13   0  55 W6        30.51S WCI   4
DE KALB*       SUNNY     10  -2  56 W12       30.49S WCI  -4
PERU*          SUNNY     14   2  58 NW9       30.54R WCI   2
$$

ILZ005-006-012>014-019>023-052300-
NORTHEAST ILLINOIS

CITY           SKY/WX    TMP DP  RH WIND       PRES   REMARKS
CHICAGO-OHARE  SUNNY     15  -2  46 W6        30.48R WCI   6
CHICAGO-MIDWAY SUNNY     18  -2  41 NW7       30.50R WCI   9
AURORA         SUNNY     13  -1  54 W12       30.51R WCI  -1
LANSING*       SUNNY     19   0  44 W10G17    30.49R WCI   7
JOLIET*        SUNNY     14  -2  49 NW7       30.52S WCI   4
WAUKEGAN       SUNNY     15  -5  40 W7        30.47R WCI   5
DUPAGE AIRPORT SUNNY     14  -1  51 W9        30.48R WCI   2
KANKAKEE*      SUNNY     16   2  53 NW9       30.52S WCI   4
WHEELING       SUNNY     16  -3  43 NW8       30.50R WCI   5
MORRIS*        SUNNY     13   3  63 NW9       30.52S WCI   1
ROMEOVILLE*    SUNNY     14   0  54 W10       30.51R WCI   1
NORTHERLY ISL    N/A     18  -1  43 NW10        N/A  WCI   6
$$

LMZ740>746-052300-
SOUTHERN LAKE MICHIGAN

STATION/POSITION SKY/WX   TEMP    WIND        PRES    VSBY  WAVE
                          AIR SEA DIR/SP/G                  HT/PER
                          (F)     (DEG/KT/KT) (MB)    (MI)  (FT/S)
WAUKEGAN HARBOR            15                   N/A
HARRISON CRIB              17     280/  8/ 10   N/A
BURNHAM HARBOR             18     240/  7/ 14   N/A
CALUMET HARBOR             19     250/  4/ 10 1030.9S
MICHIGAN CITY              18     300/  8/ 11   N/A
$$

ILZ025>027-034>036-040-047-049-050-058-095>099-052300-
WEST-CENTRAL ILLINOIS

CITY           SKY/WX    TMP DP  RH WIND       PRES   REMARKS
QUINCY         SUNNY     17   2  51 NW3       30.54S
GALESBURG*     SUNNY     13   2  63 NW7       30.54S WCI   2
MACOMB*        SUNNY     14   3  60 NW7       30.58R WCI   4
JACKSONVILLE*  SUNNY     18   3  50 NW7       30.56R WCI   9
PITTSFIELD*    SUNNY     19   4  52 NW5       30.56S WCI  13
$$

ILZ028>032-037-038-041>044-048-051>054-059>061-052300-
CENTRAL ILLINOIS

CITY           SKY/WX    TMP DP  RH WIND       PRES   REMARKS
PONTIAC        SUNNY     14   3  60 W9        30.53S WCI   2
BLOOMINGTON    SUNNY     15   1  53 NW7       30.52R WCI   5
DECATUR        SUNNY     15   1  53 NW13      30.54R WCI   1
PEORIA         SUNNY     16   0  49 W8        30.55R WCI   5
LACON*         SUNNY     13   0  55 NW7       30.54S WCI   3
LINCOLN*       SUNNY     18   3  52 NW5       30.57S WCI  11
SPRINGFIELD    SUNNY     17   2  51 NW9       30.56R WCI   6
TAYLORVILLE    MOSUNNY   18   5  57 W8        30.55S WCI   7
$$

ILZ033-039-045-046-055>057-062-063-052300-
EAST-CENTRAL ILLINOIS

CITY           SKY/WX    TMP DP  RH WIND       PRES   REMARKS
CHAMPAIGN      SUNNY     15   3  59 NW13      30.53R WCI   1
DANVILLE*      SUNNY     14   2  58 NW9       30.50R WCI   2
RANTOUL*       SUNNY     15   3  60 NW10      30.53R WCI   2
MATTOON        SUNNY     15   3  59 NW14      30.53R WCI   0
PARIS*         SUNNY     16   5  63 NW10      30.54R WCI   3
$$

ILZ079-100>102-052300-
SOUTHWEST ILLINOIS

CITY           SKY/WX    TMP DP  RH WIND       PRES   REMARKS
ALTON          SUNNY     21   1  42 MISG      30.55S
BELLEVILLE     SUNNY     25  10  52 N9        30.54S WCI  15
CAHOKIA*       SUNNY     26   9  48 N9        30.56R WCI  17
SPARTA*        MOSUNNY   23   9  54 N5        30.55S WCI  17
$$

ILZ064>066-069>071-074>076-080>082-084>086-088>090-092>094-052300-
SOUTH-CENTRAL ILLINOIS

CITY           SKY/WX    TMP DP  RH WIND       PRES   REMARKS
CARBONDALE     SUNNY     22   6  50 N9        30.55S WCI  12
CAIRO*         SUNNY     29  10  45 N7        30.55R WCI  22
EFFINGHAM*     SUNNY     19   2  49 NW13      30.56S WCI   5
MARION         SUNNY     23   7  50 N14       30.56R WCI  11
MT. VERNON     SUNNY     21   3  45 W5        30.55S WCI  15
CENTRALIA*     SUNNY     20   4  50 NW8       30.55S WCI  10
SALEM*         SUNNY     21   5  49 NW9       30.56R WCI  10
METROPOLIS*    SUNNY     25   8  48 N12       30.53R WCI  14
$$

ILZ067-068-072-073-078-083-087-091-052300-
SOUTHEAST ILLINOIS

CITY           SKY/WX    TMP DP  RH WIND       PRES   REMARKS
LAWRENCEVILLE  SUNNY     21   6  52 N13       30.55R WCI   9
FLORA*         SUNNY     20   5  52 NW9       30.55S WCI   9
FAIRFIELD*     SUNNY     21   6  52 N10       30.54S WCI  10
HARRISBURG*    SUNNY     22   6  51 N7        30.56R WCI  14
ROBINSON*      SUNNY     18   3  53 NW12      30.56R WCI   5
CARMI*         SUNNY     23   9  55 NW14      30.54R WCI  11
$$

ABBREVIATIONS USED IN REMARKS
   TC - TEMPERATURE IN CELSIUS
  WCI - WIND CHILL INDEX
   HX - HEAT INDEX
  VSB - VISIBILITY
$$



USA.gov is the U.S. government's official web portal to all federal, state and local government web resources and services.